Flag for U.S.A. Weather past 2 weeks in Bakersfield, California, U.S.A.

Now
64 °F

Overcast.


Feels Like: 64 °F
Forecast: 55 / 68 °F
Wind: 5 mph from West

Location: Meadows Field

Current Time: Oct 26, 2014 at 1:04:12 AM

Latest Report: Oct 25, 2014 at 11:54 PM


Visibility: 10 mi

Pressure: 30.08 "Hg

Humidity: 65%

Dew point: 52 °F

Location of BakersfieldLocation

Historic Weather in Bakersfield — Graph

°F

Bakersfield temperature yesterday

Maximum temperature yesterday: 80 °F (at 3:54 PM)
Minimum temperature yesterday: 60 °F (at 3:54 AM)
Average temperature yesterday: 69 °F

Past Weeks' High & Low Weather Summary

 TemperatureHumidityPressure
High95 °F (Oct 13, 3:54 PM)77% (Oct 16, 4:54 AM)30.08 "Hg (Oct 16, 4:54 AM)
Low55 °F (Oct 16, 4:54 AM)5% (Oct 13, 7:54 PM)29.73 "Hg (Oct 14, 3:54 PM)
Average70 °F44%29.94 "Hg
* Reported Oct 10 11:54 PM — Oct 25 11:54 PM, Bakersfield, Weather by CustomWeather, © 2014

Note: Actual official high and low records may vary slightly from our data, if they occured in-between our weather recording intervals... More about our weather records

Advertising

Bakersfield weather history for previous 24 hours

 ConditionsComfort  
Time TempWeatherWind HumidityBarometerVisibility
11:54 PM
Oct 25
64 °FOvercast.5 mph65%30.08 "Hg10 mi
10:54 PM63 °FPassing clouds.10 mph65%30.07 "Hg10 mi
9:54 PM66 °FPassing clouds.10 mph56%30.07 "Hg10 mi
8:54 PM66 °FPassing clouds.13 mph61%30.05 "Hg7 mi
7:54 PM68 °FOvercast.15 mph57%30.02 "Hg3 mi
6:54 PM74 °FPassing clouds.5 mph35%29.99 "Hg10 mi
5:54 PM76 °FSunny.3 mph32%29.98 "Hg10 mi
4:54 PM79 °FSunny.9 mph27%29.99 "Hg10 mi
3:54 PM80 °FSunny.13 mph26%30.00 "Hg10 mi
2:54 PM78 °FSunny.8 mph31%30.01 "Hg10 mi
1:54 PM78 °FSunny.8 mph32%30.01 "Hg10 mi
12:54 PM75 °FSunny.10 mph37%30.04 "Hg10 mi
11:54 AM73 °FSunny.8 mph40%30.06 "Hg10 mi
10:54 AM72 °FSunny.13 mph46%30.07 "Hg10 mi
9:54 AM69 °FSunny.14 mph49%30.07 "Hg10 mi
8:54 AM66 °FSunny.No wind47%30.05 "Hg10 mi
7:54 AM62 °FClear.6 mph52%30.02 "Hg10 mi
6:54 AM64 °FClear.14 mph50%29.99 "Hg10 mi
5:54 AM63 °FClear.12 mph50%29.97 "Hg10 mi
4:54 AM63 °FClear.16 mph50%29.94 "Hg10 mi
3:54 AM60 °FClear.5 mph44%29.91 "Hg10 mi
2:54 AM61 °FClear.3 mph58%29.92 "Hg9 mi
1:54 AM65 °FClear.6 mph49%29.92 "Hg8 mi
Weather by CustomWeather, © 2014

See weather overviewHow to use our weather pages